KG0HG Weather Reports


Display with metric or nautical units.
time (UTC)temp
F
wind
direction
speed
MPH
gust
MPH
rain 1hr
in
rain 24hr
in
rain mn
in
humidity
%
barometer
mb
20260904143137 83 164 2.0 3.0 0.00 0.00 0.00 72 1015.5
20260904142634 82 162 2.0 2.0 0.00 0.00 0.00 73 1015.3
20260904142129 82 162 0.0 6.0 0.00 0.00 0.00 74 1015.6
20260904141624 82 168 4.0 6.0 0.00 0.00 0.00 74 1015.4
20260904141120 82 165 3.0 3.0 0.00 0.00 0.00 75 1015.1
20260904140616 81 165 2.0 2.0 0.00 0.00 0.00 76 1015.4
20260904140109 81 165 0.0 2.0 0.00 0.00 0.00 75 1015.2
20260904135608 80 165 1.0 5.0 0.00 0.00 0.00 77 1015.2
20260904135105 80 165 0.0 0.0 0.00 0.00 0.00 79 1015.3
20260904134601 79 165 0.0 3.0 0.00 0.00 0.00 79 1015.2
20260904134054 79 165 1.0 2.0 0.00 0.00 0.00 81 1015.1
20260904133549 78 165 0.0 0.0 0.00 0.00 0.00 82 1015.2
20260904133045 77 165 0.0 0.0 0.00 0.00 0.00 83 1015.2
20260904132539 77 165 0.0 1.0 0.00 0.00 0.00 85 1015.2
20260904132039 76 165 0.0 0.0 0.00 0.00 0.00 86 1015.4
20260904131539 75 165 0.0 0.0 0.00 0.00 0.00 86 1015.2
20260904131034 75 165 0.0 0.0 0.00 0.00 0.00 86 1015.1
20260904130534 75 165 0.0 0.0 0.00 0.00 0.00 87 1015.1
20260904130023 75 165 0.0 0.0 0.00 0.00 0.00 87 1015.1
20260904125520 75 165 0.0 0.0 0.00 0.00 0.00 87 1014.9
20260904125015 75 165 0.0 0.0 0.00 0.00 0.00 87 1015.0
20260904124510 75 165 0.0 0.0 0.00 0.00 0.00 87 1014.9
20260904124006 74 165 0.0 0.0 0.00 0.00 0.00 87 1014.7
20260904123505 74 165 0.0 0.0 0.00 0.00 0.00 88 1014.9
20260904123001 74 165 0.0 0.0 0.00 0.00 0.00 88 1014.6
20260904122501 73 165 0.0 0.0 0.00 0.00 0.00 88 1014.5
20260904121955 73 165 0.0 0.0 0.00 0.00 0.00 89 1014.6
20260904121452 73 165 0.0 0.0 0.00 0.00 0.00 89 1014.4
20260904120948 73 165 0.0 0.0 0.00 0.00 0.00 90 1014.7
20260904120443 73 165 0.0 0.0 0.00 0.00 0.00 90 1014.4
20260904115938 73 165 0.0 0.0 0.00 0.00 0.00 90 1014.6
20260904115434 73 165 0.0 0.0 0.00 0.00 0.00 89 1014.4
20260904114934 73 165 0.0 0.0 0.00 0.00 0.00 89 1014.3
20260904114433 73 165 0.0 0.0 0.00 0.00 0.00 89 1014.2
20260904113930 73 165 0.0 0.0 0.00 0.00 0.00 89 1014.3
20260904113428 73 165 0.0 0.0 0.00 0.00 0.00 89 1014.1
20260904112928 73 165 0.0 0.0 0.00 0.00 0.00 89 1014.3
20260904112424 73 165 0.0 0.0 0.00 0.00 0.00 88 1014.1
20260904111919 73 165 0.0 0.0 0.00 0.00 0.00 88 1014.4
20260904111414 73 165 0.0 0.0 0.00 0.00 0.00 88 1014.2
20260904110911 73 165 0.0 0.0 0.00 0.00 0.00 88 1014.2
20260904110409 73 165 0.0 0.0 0.00 0.00 0.00 88 1014.2
20260904105904 73 165 0.0 0.0 0.00 0.00 0.00 89 1013.9
20260904105359 73 165 0.0 0.0 0.00 0.00 0.00 89 1014.0
20260904104855 73 165 0.0 0.0 0.00 0.00 0.00 89 1013.8
20260904104349 73 165 0.0 0.0 0.00 0.00 0.00 89 1013.9
20260904103847 73 165 0.0 0.0 0.00 0.00 0.00 90 1013.9
20260904103346 73 165 0.0 0.0 0.00 0.00 0.00 90 1014.0
20260904102842 73 165 0.0 0.0 0.00 0.00 0.00 91 1013.7
20260904102337 72 165 0.0 0.0 0.00 0.00 0.00 92 1013.8
20260904101833 72 165 0.0 1.0 0.00 0.00 0.00 93 1013.8
20260904101330 72 165 0.0 0.0 0.00 0.00 0.00 94 1013.9
20260904100825 72 165 0.0 0.0 0.00 0.00 0.00 94 1013.7
20260904100321 72 165 0.0 0.0 0.00 0.00 0.00 94 1013.6
20260904095816 72 165 0.0 0.0 0.00 0.00 0.00 94 1013.6
20260904095310 72 165 0.0 0.0 0.00 0.00 0.00 94 1013.6
20260904094805 72 165 0.0 0.0 0.00 0.00 0.00 94 1013.4
20260904094300 72 165 0.0 0.0 0.00 0.00 0.00 94 1013.5
20260904093757 72 165 0.0 0.0 0.00 0.00 0.00 94 1013.6
20260904093251 72 165 0.0 0.0 0.00 0.00 0.00 94 1013.3
20260904092747 72 165 0.0 0.0 0.00 0.00 0.00 94 1013.4
20260904092243 72 165 0.0 0.0 0.00 0.00 0.00 94 1013.2
20260904091738 73 165 0.0 0.0 0.00 0.00 0.00 93 1013.4
20260904091233 73 165 0.0 0.0 0.00 0.00 0.00 93 1013.4
20260904090729 73 165 0.0 0.0 0.00 0.00 0.00 93 1013.2
20260904090225 73 165 0.0 0.0 0.00 0.00 0.00 93 1013.0
20260904085719 73 165 0.0 0.0 0.00 0.00 0.00 93 1013.2
20260904085214 73 165 0.0 0.0 0.00 0.00 0.00 93 1013.1
20260904084709 73 165 0.0 0.0 0.00 0.00 0.00 92 1012.9
20260904084204 74 165 0.0 0.0 0.00 0.00 0.00 92 1013.1
20260904083701 74 165 0.0 0.0 0.00 0.00 0.00 91 1013.2
20260904083157 74 165 0.0 0.0 0.00 0.00 0.00 91 1013.1
20260904082651 74 165 0.0 0.0 0.00 0.00 0.00 91 1013.3
20260904082147 74 165 0.0 0.0 0.00 0.00 0.00 90 1013.0
20260904081642 74 165 0.0 0.0 0.00 0.00 0.00 90 1012.9
20260904081137 74 165 0.0 0.0 0.00 0.00 0.00 90 1013.1
20260904080633 74 165 0.0 0.0 0.00 0.00 0.00 90 1013.1
20260904080129 74 165 0.0 0.0 0.00 0.00 0.00 89 1012.9
20260904075625 74 165 0.0 0.0 0.00 0.00 0.00 89 1012.9
20260904075124 74 165 0.0 0.0 0.00 0.00 0.00 89 1012.9
20260904074618 74 165 0.0 0.0 0.00 0.00 0.00 89 1012.9
20260904074113 75 165 0.0 0.0 0.00 0.00 0.00 89 1012.9
20260904073608 74 165 0.0 0.0 0.00 0.00 0.00 89 1013.0
20260904073104 74 165 0.0 0.0 0.00 0.00 0.00 89 1012.9
20260904072600 75 165 0.0 0.0 0.00 0.00 0.00 89 1013.1
20260904072055 75 165 0.0 0.0 0.00 0.00 0.00 88 1012.8
20260904071550 75 165 0.0 0.0 0.00 0.00 0.00 88 1012.9
20260904071045 75 165 0.0 0.0 0.00 0.00 0.00 88 1012.6
20260904070544 75 165 0.0 0.0 0.00 0.00 0.00 88 1012.9
20260904070039 75 165 0.0 0.0 0.00 0.00 0.00 88 1012.7
20260904065534 75 165 0.0 0.0 0.00 0.00 0.00 88 1013.0
20260904065030 75 165 0.0 0.0 0.00 0.00 0.00 87 1013.0
20260904064526 75 165 0.0 0.0 0.00 0.00 0.00 87 1012.9
20260904064020 75 165 0.0 0.0 0.00 0.00 0.00 88 1012.6
20260904063518 75 165 0.0 0.0 0.00 0.00 0.00 88 1013.0
20260904063017 75 165 0.0 0.0 0.00 0.00 0.00 88 1013.0
20260904062514 76 165 0.0 0.0 0.00 0.00 0.00 88 1013.0
20260904062009 76 165 0.0 0.0 0.00 0.00 0.00 88 1012.9
20260904061505 76 165 0.0 0.0 0.00 0.00 0.00 88 1013.0
20260904061001 76 165 0.0 0.0 0.00 0.00 0.00 87 1012.9
20260904060457 76 165 0.0 0.0 0.00 0.00 0.00 87 1012.8
20260904055952 76 165 0.0 0.0 0.00 0.00 0.00 87 1013.0
20260904055448 76 165 0.0 0.0 0.00 0.00 0.00 87 1012.9
20260904054943 76 165 0.0 0.0 0.00 0.00 0.00 87 1013.1
20260904054439 76 165 0.0 0.0 0.00 0.00 0.00 87 1012.8
20260904053934 76 165 0.0 0.0 0.00 0.00 0.00 87 1012.7
20260904053433 76 165 0.0 0.0 0.00 0.00 0.00 87 1012.6
20260904052929 76 165 0.0 0.0 0.00 0.00 0.00 87 1012.6
20260904052426 76 165 0.0 0.0 0.00 0.00 0.00 87 1012.9
20260904051921 76 165 0.0 0.0 0.00 0.00 0.00 87 1012.5
20260904051418 76 165 0.0 0.0 0.00 0.00 0.00 86 1012.4
20260904050912 77 165 0.0 0.0 0.00 0.00 0.00 86 1012.5
20260904050409 77 165 0.0 0.0 0.00 0.00 0.00 86 1012.4
20260904045908 77 165 0.0 0.0 0.00 0.00 0.00 86 1012.3
20260904045403 77 165 0.0 0.0 0.00 0.00 0.00 86 1012.2
20260904044903 77 165 0.0 0.0 0.00 0.00 0.00 86 1012.4
20260904044400 77 165 0.0 0.0 0.00 0.00 0.00 86 1012.3
20260904043855 78 165 0.0 0.0 0.00 0.00 0.00 85 1012.4
20260904043352 78 165 0.0 0.0 0.00 0.00 0.00 84 1012.4
20260904042848 78 165 0.0 0.0 0.00 0.00 0.00 84 1012.6
20260904042343 78 165 0.0 0.0 0.00 0.00 0.00 83 1012.6
20260904041838 78 165 0.0 0.0 0.00 0.00 0.00 82 1012.5
20260904041334 78 165 0.0 0.0 0.00 0.00 0.00 81 1012.5
20260904040830 78 165 0.0 0.0 0.00 0.00 0.00 80 1012.5
20260904040325 79 165 0.0 0.0 0.00 0.00 0.00 80 1012.6
20260904035821 79 165 0.0 0.0 0.00 0.00 0.00 80 1012.4
20260904035317 79 165 0.0 0.0 0.00 0.00 0.00 79 1012.4
20260904034816 79 165 0.0 0.0 0.00 0.00 0.00 78 1012.5
20260904034312 79 165 0.0 0.0 0.00 0.00 0.00 78 1012.6
20260904033807 80 165 0.0 0.0 0.00 0.00 0.00 78 1012.6
20260904033304 80 165 0.0 0.0 0.00 0.00 0.00 77 1012.5
20260904032759 80 165 0.0 0.0 0.00 0.00 0.00 76 1012.6
20260904032258 80 165 0.0 0.0 0.00 0.00 0.00 76 1012.6
20260904031753 80 165 0.0 0.0 0.00 0.00 0.00 76 1012.4
20260904031248 81 165 0.0 0.0 0.00 0.00 0.00 75 1012.5
20260904030738 81 165 0.0 0.0 0.00 0.00 0.00 75 1012.4
20260904030234 81 165 0.0 0.0 0.00 0.00 0.00 75 1012.4
20260904025730 81 165 0.0 0.0 0.00 0.00 0.00 75 1012.4
20260904025224 81 165 0.0 0.0 0.00 0.00 0.00 75 1012.5
20260904024714 82 165 0.0 0.0 0.00 0.00 0.00 74 1012.6
20260904024209 82 165 0.0 0.0 0.00 0.00 0.00 74 1012.2
20260904023705 82 165 0.0 0.0 0.00 0.00 0.00 71 1012.5
20260904023156 83 165 0.0 0.0 0.00 0.00 0.00 69 1012.3
20260904022654 84 165 0.0 0.0 0.00 0.00 0.00 68 1012.2
20260904022152 84 165 0.0 0.0 0.00 0.00 0.00 67 1012.3
20260904021648 84 165 0.0 0.0 0.00 0.00 0.00 66 1012.1
20260904021142 85 165 0.0 0.0 0.00 0.00 0.00 65 1012.0
20260904020639 85 165 0.0 0.0 0.00 0.00 0.00 63 1012.0
20260904020127 86 165 0.0 0.0 0.00 0.00 0.00 63 1012.2
20260904015627 86 165 0.0 0.0 0.00 0.00 0.00 62 1011.9
20260904015125 86 165 0.0 0.0 0.00 0.00 0.00 61 1011.6
20260904014625 87 165 0.0 0.0 0.00 0.00 0.00 60 1011.7
20260904014120 87 165 0.0 0.0 0.00 0.00 0.00 59 1011.7
20260904013617 87 165 0.0 1.0 0.00 0.00 0.00 59 1011.7
20260904013113 87 165 0.0 0.0 0.00 0.00 0.00 58 1011.3
20260904012608 87 165 0.0 0.0 0.00 0.00 0.00 58 1011.5
20260904012108 88 165 0.0 0.0 0.00 0.00 0.00 57 1011.1
20260904011607 89 165 0.0 0.0 0.00 0.00 0.00 56 1011.1
20260904011102 89 165 0.0 0.0 0.00 0.00 0.00 55 1011.2
20260904010558 90 165 0.0 0.0 0.00 0.00 0.00 53 1011.3
20260904010054 91 165 1.0 2.0 0.00 0.00 0.00 53 1011.1
20260904005554 91 166 0.0 1.0 0.00 0.00 0.00 52 1011.1
20260904005049 91 166 0.0 2.0 0.00 0.00 0.00 51 1011.0
20260904004545 92 166 0.0 1.0 0.00 0.00 0.00 51 1011.1
20260904004039 92 166 0.0 1.0 0.00 0.00 0.00 51 1010.9
20260904003536 93 166 0.0 0.0 0.00 0.00 0.00 49 1011.1
20260904003031 93 166 0.0 2.0 0.00 0.00 0.00 50 1011.2
20260904002527 93 167 0.0 2.0 0.00 0.00 0.00 49 1011.1
20260904002026 94 166 0.0 3.0 0.00 0.00 0.00 48 1011.1
20260904001522 94 166 0.0 3.0 0.00 0.00 0.00 48 1011.2
20260904001021 94 167 1.0 2.0 0.00 0.00 0.00 47 1011.0
20260904000521 94 167 2.0 3.0 0.00 0.00 0.00 47 1011.3
20260904000017 95 167 1.0 2.0 0.00 0.00 0.00 46 1011.1
20260903235512 95 166 1.0 2.0 0.00 0.00 0.00 46 1011.2
20260903235008 95 169 2.0 3.0 0.00 0.00 0.00 46 1011.2
20260903234503 95 176 2.0 5.0 0.00 0.00 0.00 45 1011.2
20260903233958 96 180 5.0 7.0 0.00 0.00 0.00 44 1011.2
20260903233454 96 172 2.0 5.0 0.00 0.00 0.00 44 1011.3
20260903232949 95 170 1.0 6.0 0.00 0.00 0.00 45 1011.0
20260903232445 96 162 4.0 8.0 0.00 0.00 0.00 45 1011.1
20260903231944 96 182 0.0 6.0 0.00 0.00 0.00 45 1010.9
20260903231439 96 171 3.0 6.0 0.00 0.00 0.00 45 1011.2
20260903230933 96 170 0.0 3.0 0.00 0.00 0.00 45 1010.9
20260903230429 96 170 5.0 6.0 0.00 0.00 0.00 44 1010.7
20260903225926 96 171 4.0 5.0 0.00 0.00 0.00 44 1011.0
20260903225421 96 166 4.0 7.0 0.00 0.00 0.00 44 1011.3
20260903224917 97 172 5.0 8.0 0.00 0.00 0.00 42 1011.1
20260903224413 96 170 2.0 5.0 0.00 0.00 0.00 44 1011.1
20260903223909 97 163 3.0 5.0 0.00 0.00 0.00 43 1011.2
20260903223408 97 171 3.0 3.0 0.00 0.00 0.00 44 1011.1
20260903222907 97 171 0.0 5.0 0.00 0.00 0.00 43 1011.1
20260903222403 96 171 4.0 6.0 0.00 0.00 0.00 42 1011.3
20260903221857 97 169 2.0 5.0 0.00 0.00 0.00 43 1011.2
20260903221355 96 171 3.0 5.0 0.00 0.00 0.00 43 1011.3
20260903220854 96 165 2.0 5.0 0.00 0.00 0.00 44 1011.1
20260903220348 96 164 2.0 13.0 0.00 0.00 0.00 43 1011.4
20260903215847 96 164 2.0 5.0 0.00 0.00 0.00 43 1011.4
20260903215343 97 162 3.0 6.0 0.00 0.00 0.00 44 1011.2
20260903214842 96 166 2.0 5.0 0.00 0.00 0.00 44 1011.5
20260903214338 96 166 3.0 3.0 0.00 0.00 0.00 43 1011.5
20260903213837 96 167 4.0 9.0 0.00 0.00 0.00 44 1011.7
20260903213332 96 169 1.0 6.0 0.00 0.00 0.00 45 1011.4
20260903212829 97 180 5.0 6.0 0.00 0.00 0.00 44 1011.9
20260903212325 96 159 4.0 5.0 0.00 0.00 0.00 43 1011.6
20260903211824 97 167 0.0 3.0 0.00 0.00 0.00 45 1011.5
20260903211320 96 165 2.0 5.0 0.00 0.00 0.00 44 1011.6
20260903210816 96 176 4.0 6.0 0.00 0.00 0.00 44 1011.7
20260903210311 97 165 4.0 8.0 0.00 0.00 0.00 44 1012.0
20260903205810 96 168 2.0 5.0 0.00 0.00 0.00 46 1011.5
20260903205310 96 165 1.0 3.0 0.00 0.00 0.00 45 1011.6
20260903204806 96 171 3.0 10.0 0.00 0.00 0.00 46 1012.0
20260903204302 96 167 2.0 5.0 0.00 0.00 0.00 45 1012.1
20260903203757 96 158 1.0 6.0 0.00 0.00 0.00 45 1012.0
20260903203253 96 174 2.0 2.0 0.00 0.00 0.00 45 1012.0
20260903202751 96 170 3.0 5.0 0.00 0.00 0.00 44 1012.0
20260903202248 96 166 3.0 6.0 0.00 0.00 0.00 44 1012.2
20260903201747 97 165 2.0 5.0 0.00 0.00 0.00 45 1012.0
20260903201243 96 168 3.0 5.0 0.00 0.00 0.00 46 1012.0
20260903200741 96 175 4.0 6.0 0.00 0.00 0.00 45 1012.0
20260903200237 95 185 2.0 8.0 0.00 0.00 0.00 46 1012.2
20260903195732 95 150 4.0 7.0 0.00 0.00 0.00 45 1012.4
20260903195228 96 166 1.0 3.0 0.00 0.00 0.00 45 1012.3
20260903194728 95 178 3.0 9.0 0.00 0.00 0.00 46 1012.5
20260903194224 95 164 5.0 7.0 0.00 0.00 0.00 45 1012.5
20260903193719 95 175 4.0 6.0 0.00 0.00 0.00 47 1012.5
20260903193214 95 216 6.0 9.0 0.00 0.00 0.00 46 1012.6
20260903192711 95 185 5.0 14.0 0.00 0.00 0.00 45 1012.5
20260903192206 96 153 3.0 7.0 0.00 0.00 0.00 46 1012.8
20260903191702 96 158 1.0 5.0 0.00 0.00 0.00 46 1012.5
20260903191201 96 271 2.0 6.0 0.00 0.00 0.00 46 1012.6
20260903190656 94 164 3.0 7.0 0.00 0.00 0.00 48 1012.7
20260903190151 94 166 3.0 5.0 0.00 0.00 0.00 48 1012.9
20260903185646 95 179 5.0 10.0 0.00 0.00 0.00 48 1012.9
20260903185141 93 167 1.0 3.0 0.00 0.00 0.00 48 1012.9
20260903184638 94 170 2.0 3.0 0.00 0.00 0.00 47 1013.0
20260903184133 93 173 3.0 7.0 0.00 0.00 0.00 47 1012.9
20260903183631 93 170 5.0 8.0 0.00 0.00 0.00 48 1013.1
20260903183127 93 167 4.0 6.0 0.00 0.00 0.00 49 1013.0
20260903182626 94 174 2.0 11.0 0.00 0.00 0.00 49 1013.1
20260903182122 92 182 3.0 6.0 0.00 0.00 0.00 51 1013.2
20260903181620 93 154 2.0 7.0 0.00 0.00 0.00 50 1013.4
20260903181114 92 172 0.0 7.0 0.00 0.00 0.00 50 1013.1
20260903180610 92 173 1.0 3.0 0.00 0.00 0.00 50 1013.4
20260903180104 92 158 3.0 9.0 0.00 0.00 0.00 51 1013.5
20260903175604 93 182 3.0 6.0 0.00 0.00 0.00 51 1013.4
20260903175103 92 173 1.0 2.0 0.00 0.00 0.00 48 1013.7
20260903174558 92 195 3.0 5.0 0.00 0.00 0.00 50 1013.6
20260903174052 91 160 1.0 3.0 0.00 0.00 0.00 50 1013.6
20260903173547 91 155 3.0 6.0 0.00 0.00 0.00 51 1013.8
20260903173044 92 163 3.0 7.0 0.00 0.00 0.00 51 1013.7
20260903172539 91 158 3.0 6.0 0.00 0.00 0.00 52 1013.7
20260903172035 92 169 2.0 5.0 0.00 0.00 0.00 53 1013.9
20260903171529 91 170 4.0 7.0 0.00 0.00 0.00 54 1014.1
20260903171024 91 156 3.0 5.0 0.00 0.00 0.00 54 1014.1
20260903170523 91 174 2.0 6.0 0.00 0.00 0.00 54 1014.1
20260903170019 91 171 3.0 5.0 0.00 0.00 0.00 54 1014.2
20260903165511 91 156 3.0 6.0 0.00 0.00 0.00 55 1014.3
20260903165007 91 167 3.0 6.0 0.00 0.00 0.00 55 1014.2
20260903164507 91 165 3.0 7.0 0.00 0.00 0.00 56 1014.4
20260903164002 91 160 4.0 5.0 0.00 0.00 0.00 57 1014.2
20260903163456 90 166 2.0 7.0 0.00 0.00 0.00 56 1014.2
20260903162952 90 173 3.0 6.0 0.00 0.00 0.00 56 1014.2
20260903162449 89 166 1.0 2.0 0.00 0.00 0.00 57 1014.3
20260903161944 89 166 2.0 6.0 0.00 0.00 0.00 57 1014.4
20260903161434 89 169 3.0 8.0 0.00 0.00 0.00 58 1014.4
20260903160930 89 163 1.0 5.0 0.00 0.00 0.00 58 1014.4
20260903160429 89 185 3.0 5.0 0.00 0.00 0.00 59 1014.4
20260903155928 88 161 2.0 3.0 0.00 0.00 0.00 59 1014.4
20260903155423 88 187 6.0 7.0 0.00 0.00 0.00 61 1014.6
20260903154919 88 168 3.0 5.0 0.00 0.00 0.00 61 1014.6
20260903154414 87 169 2.0 3.0 0.00 0.00 0.00 61 1014.3
20260903153909 87 148 4.0 7.0 0.00 0.00 0.00 62 1014.6
20260903153404 87 171 6.0 8.0 0.00 0.00 0.00 62 1014.4
20260903152901 87 166 1.0 5.0 0.00 0.00 0.00 64 1014.6
20260903152356 87 164 2.0 6.0 0.00 0.00 0.00 64 1014.4
20260903151852 86 172 1.0 3.0 0.00 0.00 0.00 65 1014.6
20260903151347 86 173 1.0 7.0 0.00 0.00 0.00 64 1014.5
20260903150846 85 163 4.0 7.0 0.00 0.00 0.00 65 1014.6
20260903150341 85 170 5.0 7.0 0.00 0.00 0.00 65 1014.5
20260903145836 85 217 3.0 7.0 0.00 0.00 0.00 66 1014.5
20260903145331 85 170 3.0 6.0 0.00 0.00 0.00 66 1014.4
20260903144830 84 179 3.0 7.0 0.00 0.00 0.00 66 1014.4
20260903144325 84 183 1.0 2.0 0.00 0.00 0.00 68 1014.4
20260903143816 84 159 3.0 3.0 0.00 0.00 0.00 68 1014.5
20260903143312 84 178 2.0 6.0 0.00 0.00 0.00 68 1014.5